Orbital Elements
Epoch 2023 Feb. 25.0 TT = JDT 2460000.5
T 2023 Jan. 30.58452 TT Rudenko
q 1.2362995 (2000.0) P Q
n 0.18578719 Peri. 35.04411 -0.76107490 -0.61945280
a 3.0417642 Node 105.50995 +0.54013905 -0.76950258
e 0.5935584 Incl. 11.52175 +0.35918631 -0.15538340
P 5.31
>From 405 observations 2006 Nov. 10-2023 Feb. 26, mean residual 0".6.
|